Tracking 19832 objects as of 26-Aug-2019
HD Live streaming from Space Station
objects crossing your sky now

FALCON 9 R/B

Track FALCON 9 R/B now!


NORAD ID: 40426
Int'l Code: 2015-010C
Perigee: 214.5 km
Apogee: 63,050.5 km
Inclination: 22.6 °
Period: 1,228.8 minutes
Semi major axis: 38003 km
RCS: Unknown
Launch date: March 2, 2015
Source: United States (US)
Launch site: AIR FORCE EASTERN TEST RANGE (AFETR)

Note: This is a ROCKET BODY
aabbcc
Your satellite tracking list
Your tracking list is empty




NASA's NSSDC Master Catalog

Two Line Element Set (TLE):
1 40426U 15010C   19235.42956107  .00000410  00000-0  57295-4 0  9994
2 40426  22.6158 114.2672 8267137 306.8323   3.3409  1.17183829 19070
Source of the keplerian elements: AFSPC